Regional Weather Roundup
Issued by NWS

Home | Current Version | Previous Version | Text Only | Print | Product List | Glossary Off
Versions: 1 2 3 4 5 6 7 8 9 10 11 12 13 14 15 16 17 18 19 20 21 22 23 24 25 26 27 28 29 30 31 32 33 34 35 36 37 38 39 40 41 42 43 44 45 46 47 48 49 50

000
ASUS45 KTFX 020704
RWRMT
MONTANA HOURLY WEATHER ROUNDUP
NATIONAL WEATHER SERVICE GREAT FALLS MT
104 AM MDT THU APR 2 2015

NOTE: "FAIR" INDICATES FEW OR NO CLOUDS BELOW 12000 FEET WITH NO
SIGNIFICANT WEATHER AND/OR OBSTRUCTIONS TO VISIBILITY.

* THESE STATIONS ARE NOT UNDER NWS QUALITY CONTROL. THEY DO NOT
   REPORT WEATHER SUCH AS PRECIPITATION OR FOG.

MTZ001>007-043-020800-
WEST OF THE DIVIDE
CITY           SKY/WX    TMP DP  RH WIND       PRES   REMARKS
KALISPELL      CLOUDY    30  27  89 SW3       30.06R
MISSOULA       PTCLDY    28  25  89 CALM      30.11R
BUTTE          PTCLDY    21  16  81 SW3       30.01R
MULLAN PASS    FOG       21  19  92 NW3       30.01S VSB 2 1/2
* ESSEX        N/A       31  26  82 NW2        N/A
* LINCOLN      N/A       30  21  69 SW4G9      N/A
* LOOKOUT PASS N/A       27  25  92 N4         N/A
* POLSON       N/A       29  23  78 S1         N/A
* SEELEY LAKE  N/A       27  23  85 N/A        N/A
* THOMP F APT  PTCLDY    26  10  51 N8G18      N/A   WCI  18
* YAAK HILL    N/A       32  27  82 SE1        N/A
$$

MTZ008-052>055-020800-
SOUTHWEST MONTANA
CITY           SKY/WX    TMP DP  RH WIND       PRES   REMARKS
BOZEMAN        PTCLDY    28  19  69 SW6       30.02R WCI  21
DILLON         PTCLDY    25  12  58 SW5       30.02R WCI  19
* W YELLOWSTON PTCLDY    22  17  81 N/A        N/A
* BOULDER HILL N/A       29  14  53 NE6        N/A   WCI  23
* HOMESTAKE PS N/A       22  15  74 NW4G9      N/A
* MONIDA PASS  N/A       19  12  74 W7         N/A   WCI  10
* RAYNOLDS PAS N/A       18  18 100 NW2        N/A
* WHITEHALL    N/A       28  16  61 NW5G10     N/A   WCI  22
* WISE RIVER   N/A       26  12  55 NW7        N/A   WCI  18
$$

MTZ009>010-012-014-046-048-049-054-020800-
EAST SLOPES AND CENTRAL MONTANA
CITY           SKY/WX    TMP DP  RH WIND       PRES   REMARKS
CUT BANK       PTCLDY    28  21  75 W9        30.01R WCI  19
GREAT FALLS    CLOUDY    32  27  82 NW13      30.01R WCI  22
HELENA         MOCLDY    36  19  50 W13       30.02R WCI  27
MALMSTROM AFB  MOCLDY    34  27  76 W10       30.02R WCI  26
* DEARBORN     N/A       39  19  45 S9         N/A   WCI  33
* EAST GLACIER N/A       25  22  88 NE14G19    N/A   WCI  13
* MONARCH      N/A       27  17  66 NW14       N/A   WCI  16
* PENDROY      N/A       29  29 100 N13G18     N/A   WCI  19
* ROGERS PASS  N/A       28  18  66 SE6        N/A   WCI  21
* SAINT MARY   N/A       27  25  92 NE4G10     N/A
* SWEET GRASS  N/A       30  25  82 N20G25     N/A   WCI  17
$$

MTZ011-013-016-021-035-040-045-047-050-051-020800-
NORTH CENTRAL MONTANA
CITY           SKY/WX    TMP DP  RH WIND       PRES   REMARKS
HAVRE          MOCLDY    34  27  76 NW25G37   29.91R WCI  21
LEWISTOWN      MOCLDY    34  25  70 NW14G26   29.94R WCI  24
* N BAR RANCH  CLEAR     30  19  64 NW12G17   29.90R WCI  20
* CHESTER      N/A       31  25  78 NW14G22    N/A   WCI  21
* DENTON       N/A       32  29  89 W18G30     N/A   WCI  21
* GEYSER       N/A       32  22  67 W12        N/A   WCI  23
* JUDITH GAP   N/A       33  14  45 NW17G30    N/A   WCI  22
* LOMA         N/A       36  25  64 W13G26     N/A   WCI  27
$$

MTZ017>020-022>027-061-062-020800-
NORTHEAST MONTANA
CITY           SKY/WX    TMP DP  RH WIND       PRES   REMARKS
GLASGOW        CLOUDY    37  25  62 W26G35    29.72S WCI  25
GLENDIVE       CLEAR     37  19  48 W16G23    29.76R WCI  28
JORDAN         PTCLDY    37  27  67 W17G23    29.81S WCI  27
SIDNEY         CLEAR     41  21  45 W16G23    29.69S
WOLF POINT     PTCLDY    39  25  57 W23G35    29.71R WCI  28
* BEAVER HILL  N/A       35  17  48 SW14       N/A   WCI  26
* CIRCLE       N/A       40  26  57 W17G28     N/A   WCI  31
* LINDSAY DVD  N/A       34  21  59 W16G21     N/A   WCI  24
* NAVAJO       N/A       36  25  64 W28G35     N/A   WCI  23
* SACO         N/A       37  25  62 W24G39     N/A   WCI  26
$$

MTZ028>042-056>058-020800-
SOUTHCENTRAL AND SOUTHEAST MONTANA
CITY           SKY/WX    TMP DP  RH WIND       PRES   REMARKS
BAKER          CLEAR     37  16  42 W16       29.78S WCI  28
BILLINGS       PTCLDY    37  18  46 W20G26    29.93R WCI  27
LIVINGSTON     MOCLDY    30  16  56 W7        29.99R WCI  23
MILES CITY     PTCLDY    37  10  33 W13       29.83R WCI  29
* ALZADA       N/A       30  12  47 W4         N/A
* HYSHAM       N/A       34  13  42 W4         N/A
* LAME DEER    N/A       34  15  46 SW13       N/A   WCI  25
* REED POINT   N/A       36  19  50 W9G15      N/A   WCI  29
* ROSCOE HILL  N/A       31   7  36 NW6G11     N/A   WCI  25
$$

REGIONAL REPORTS...DAKOTAS
CITY           SKY/WX    TMP DP  RH WIND       PRES   REMARKS
WILLISTON      CLEAR     37  23  57 W13       29.64S WCI  29
DICKINSON      CLEAR     34  19  54 SW15      29.69F WCI  24
CROSBY         CLEAR     37  25  62 W21G29    29.57F WCI  26
WATFORD CITY   CLEAR     39  21  48 W17G22    29.65S WCI  30
BISMARCK       CLEAR     37  21  52 W7        29.70S WCI  32
GRAND FORKS    PTCLDY    36  28  73 W8        29.58S WCI  30
FARGO          PTCLDY    39  28  65 SW9       29.68R WCI  33
BUFFALO SD     CLEAR     30  16  56 W13       29.74F WCI  20
RAPID CITY     CLEAR     34  12  40 W6        29.85S WCI  29
$$

REGIONAL REPORTS...WYOMING/IDAHO/WASHINGTON
CITY           SKY/WX    TMP DP  RH WIND       PRES   REMARKS
GILLETTE       MOCLDY    30  12  47 W12       29.89S WCI  20
SHERIDAN       PTCLDY    34  16  48 N3        29.92R
CODY           PTCLDY    34  19  54 W12G18    29.96R WCI  25
YELLOWSTONE LA MOCLDY    18  14  84 CALM      29.98R
SALMON         MOCLDY    30  27  89 S5        30.10S WCI  25
MULLAN PASS    FOG       21  19  92 NW3       30.01S VSB 2 1/2
SAND POINT     PTCLDY    30  30 100 CALM      30.14R
SPOKANE        MOCLDY    36  32  85 S7        30.12R WCI  30
$$

REGIONAL REPORTS...SASKATCHEWAN
CITY           SKY/WX    TMP DP  RH WIND       PRES   REMARKS
SWIFT CURRENT  LGT SNOW  28  27  96 NW24G36   29.64R VSB 2 1/2 WCI  14

$$



USA.gov is the U.S. government's official web portal to all federal, state and local government web resources and services.